Location: Conjunto Santa Maria
(19.9513°S, 43.9599°W)
Time: 13:06:40
(UTC+00:00)

Ariane Rocket - Pass Details

Date: 21 January 2021
Orbit: 760 x 770 km, 98.7° (Epoch: 03 March)

Event Time Altitude Azimuth Distance (km) Brightness Sun altitude
Rises 23:43:01 0° 171° (S) 3,239 6.6 -26.2°
Reaches altitude 10° 23:45:20 10° 172° (S) 2,308 5.8 -26.6°
Maximum altitude 23:50:25 75° 256° (WSW) 793 3.0 -27.6°
Enters shadow 23:50:50 70° 299° (WNW) 814 3.1 -27.7°
